Meteo pe oră la Abaliget

Astăzi, 24 Iulie, Sâmbătă

Timp Temperatura Precipitaţii Vânt Presiune Umiditate
00:00 +20°C° 0 mm 1 m/s 746 mmHg 61%
01:00 +19°C° 0 mm 1 m/s 746 mmHg 63%
02:00 +17°C° 0 mm 0 m/s 745 mmHg 65%
03:00 +16°C° 0 mm 0 m/s 745 mmHg 66%
04:00 +16°C° 0 mm 0 m/s 745 mmHg 67%
05:00 +18°C° 0 mm 0 m/s 745 mmHg 63%
06:00 +20°C° 0 mm 0 m/s 745 mmHg 59%
07:00 +21°C° 0 mm 0 m/s 746 mmHg 54%
08:00 +25°C° 0 mm 1 m/s 746 mmHg 48%
09:00 +28°C° 0 mm 2 m/s 745 mmHg 41%
10:00 +30°C° 0 mm 2 m/s 745 mmHg 35%
11:00 +30°C° 0 mm 3 m/s 745 mmHg 32%
12:00 +31°C° 0 mm 3 m/s 745 mmHg 30%
13:00 +33°C° 0 mm 3 m/s 745 mmHg 28%
14:00 +33°C° 0 mm 3 m/s 744 mmHg 28%
15:00 +33°C° 0 mm 3 m/s 744 mmHg 28%
16:00 +33°C° 0 mm 3 m/s 744 mmHg 28%
17:00 +30°C° 0 mm 3 m/s 744 mmHg 34%
18:00 +28°C° 0 mm 3 m/s 744 mmHg 41%
19:00 +26°C° 0 mm 2 m/s 744 mmHg 47%
20:00 +25°C° 0 mm 3 m/s 744 mmHg 48%
21:00 +24°C° 0 mm 3 m/s 744 mmHg 48%
22:00 +22°C° 0 mm 3 m/s 743 mmHg 49%
23:00 +22°C° 0 mm 3 m/s 743 mmHg 49%

Mâine, 25 Iulie, Duminică

Timp Temperatura Precipitaţii Vânt Presiune Umiditate
00:00 +21°C° 0 mm 3 m/s 743 mmHg 49%
01:00 +21°C° 0 mm 3 m/s 743 mmHg 49%
02:00 +20°C° 0 mm 3 m/s 743 mmHg 51%
03:00 +20°C° 0 mm 3 m/s 743 mmHg 54%
04:00 +19°C° 0 mm 3 m/s 743 mmHg 56%
05:00 +21°C° 0 mm 3 m/s 743 mmHg 54%
06:00 +22°C° 0 mm 3 m/s 743 mmHg 52%
07:00 +24°C° 0 mm 3 m/s 743 mmHg 50%
08:00 +27°C° 0 mm 3 m/s 743 mmHg 45%
09:00 +29°C° 0 mm 3 m/s 743 mmHg 41%
10:00 +31°C° 0 mm 3 m/s 743 mmHg 36%
11:00 +34°C° 0 mm 3 m/s 743 mmHg 34%
12:00 +35°C° 0 mm 3 m/s 743 mmHg 31%
13:00 +37°C° 0 mm 3 m/s 743 mmHg 29%
14:00 +37°C° 0 mm 3 m/s 742 mmHg 28%
15:00 +37°C° 0 mm 3 m/s 742 mmHg 28%
16:00 +37°C° 0 mm 3 m/s 742 mmHg 27%
17:00 +35°C° 0 mm 3 m/s 742 mmHg 33%
18:00 +32°C° 0 mm 2 m/s 742 mmHg 40%
19:00 +30°C° 0 mm 2 m/s 741 mmHg 47%
20:00 +28°C° 0.1 mm 2 m/s 742 mmHg 53%
21:00 +26°C° 0.1 mm 2 m/s 742 mmHg 59%
22:00 +24°C° 0.1 mm 2 m/s 742 mmHg 66%
23:00 +24°C° 0 mm 2 m/s 742 mmHg 66%

Poimâine, 26 Iulie, Luni

Timp Temperatura Precipitaţii Vânt Presiune Umiditate
00:00 +23°C° 0 mm 2 m/s 742 mmHg 67%
01:00 +23°C° 0 mm 1 m/s 742 mmHg 67%
02:00 +23°C° 0 mm 1 m/s 742 mmHg 68%
03:00 +22°C° 0 mm 1 m/s 743 mmHg 70%
04:00 +22°C° 0 mm 1 m/s 743 mmHg 71%
05:00 +23°C° 0.2 mm 1 m/s 743 mmHg 71%
06:00 +23°C° 0.2 mm 1 m/s 743 mmHg 71%
07:00 +24°C° 0.2 mm 1 m/s 744 mmHg 72%
08:00 +27°C° 0 mm 1 m/s 744 mmHg 61%
09:00 +30°C° 0 mm 2 m/s 744 mmHg 50%
10:00 +32°C° 0 mm 2 m/s 744 mmHg 39%
11:00 +35°C° 0 mm 3 m/s 744 mmHg 35%
12:00 +37°C° 0 mm 3 m/s 744 mmHg 30%
13:00 +38°C° 0 mm 4 m/s 744 mmHg 25%
14:00 +40°C° 0 mm 4 m/s 744 mmHg 25%
15:00 +40°C° 0 mm 5 m/s 744 mmHg 24%
16:00 +40°C° 0 mm 5 m/s 744 mmHg 23%
17:00 +37°C° 0 mm 4 m/s 743 mmHg 28%
18:00 +34°C° 0 mm 3 m/s 743 mmHg 32%
19:00 +30°C° 0 mm 1 m/s 742 mmHg 36%
20:00 +29°C° 0 mm 2 m/s 743 mmHg 40%
21:00 +28°C° 0 mm 2 m/s 743 mmHg 43%
22:00 +27°C° 0 mm 2 m/s 743 mmHg 46%
23:00 +26°C° 0 mm 2 m/s 744 mmHg 50%

27 Iulie, Marţi

Timp Temperatura Precipitaţii Vânt Presiune Umiditate
00:00 +25°C° 0 mm 2 m/s 744 mmHg 54%
01:00 +24°C° 0 mm 2 m/s 744 mmHg 59%
02:00 +23°C° 0 mm 2 m/s 744 mmHg 61%
03:00 +23°C° 0 mm 2 m/s 743 mmHg 64%
04:00 +22°C° 0 mm 1 m/s 743 mmHg 67%
05:00 +24°C° 0 mm 1 m/s 744 mmHg 61%
06:00 +26°C° 0 mm 2 m/s 744 mmHg 55%
07:00 +28°C° 0 mm 2 m/s 744 mmHg 50%
08:00 +30°C° 0 mm 3 m/s 744 mmHg 43%
09:00 +34°C° 0 mm 3 m/s 745 mmHg 37%
10:00 +36°C° 0 mm 4 m/s 745 mmHg 30%
11:00 +37°C° 0 mm 5 m/s 745 mmHg 28%
12:00 +38°C° 0 mm 6 m/s 745 mmHg 27%
13:00 +39°C° 0 mm 7 m/s 745 mmHg 25%
14:00 +38°C° 0.1 mm 6 m/s 744 mmHg 30%
15:00 +35°C° 0.1 mm 6 m/s 744 mmHg 34%
16:00 +34°C° 0.1 mm 6 m/s 744 mmHg 38%
17:00 +32°C° 0 mm 5 m/s 744 mmHg 42%
18:00 +30°C° 0 mm 3 m/s 744 mmHg 46%
19:00 +28°C° 0 mm 2 m/s 744 mmHg 51%
20:00 +27°C° 0 mm 2 m/s 744 mmHg 52%
21:00 +26°C° 0 mm 2 m/s 744 mmHg 54%
22:00 +26°C° 0 mm 3 m/s 745 mmHg 56%
23:00 +25°C° 0 mm 2 m/s 745 mmHg 57%

28 Iulie, Miercuri

Timp Temperatura Precipitaţii Vânt Presiune Umiditate
00:00 +25°C° 0 mm 2 m/s 744 mmHg 58%
01:00 +24°C° 0 mm 2 m/s 744 mmHg 59%
02:00 +24°C° 0 mm 2 m/s 744 mmHg 60%
03:00 +23°C° 0 mm 1 m/s 744 mmHg 61%
04:00 +23°C° 0 mm 1 m/s 744 mmHg 62%
05:00 +24°C° 0 mm 1 m/s 744 mmHg 59%
06:00 +26°C° 0 mm 2 m/s 745 mmHg 56%
07:00 +27°C° 0 mm 2 m/s 745 mmHg 53%
08:00 +29°C° 0 mm 2 m/s 745 mmHg 48%
09:00 +31°C° 0 mm 3 m/s 745 mmHg 44%
10:00 +33°C° 0 mm 3 m/s 745 mmHg 39%
11:00 +35°C° 0 mm 3 m/s 745 mmHg 36%
12:00 +36°C° 0 mm 3 m/s 745 mmHg 33%
13:00 +37°C° 0 mm 3 m/s 745 mmHg 30%
14:00 +37°C° 0 mm 3 m/s 745 mmHg 30%
15:00 +37°C° 0 mm 4 m/s 745 mmHg 30%
16:00 +36°C° 0 mm 4 m/s 745 mmHg 31%
17:00 +34°C° 0 mm 5 m/s 745 mmHg 36%
18:00 +32°C° 0 mm 5 m/s 745 mmHg 41%
19:00 +28°C° 0 mm 6 m/s 746 mmHg 47%
20:00 +27°C° 0 mm 4 m/s 746 mmHg 51%
21:00 +25°C° 0 mm 3 m/s 746 mmHg 55%
22:00 +24°C° 0 mm 2 m/s 747 mmHg 59%
23:00 +23°C° 0 mm 2 m/s 747 mmHg 61%

29 Iulie, Joi

Timp Temperatura Precipitaţii Vânt Presiune Umiditate
00:00 +21°C° 0 mm 2 m/s 747 mmHg 63%
01:00 +20°C° 0 mm 2 m/s 747 mmHg 64%
02:00 +21°C° 0 mm 1 m/s 747 mmHg 65%
03:00 +21°C° 0 mm 1 m/s 747 mmHg 65%
04:00 +20°C° 0 mm 1 m/s 747 mmHg 66%
05:00 +22°C° 0 mm 1 m/s 748 mmHg 61%
06:00 +24°C° 0 mm 2 m/s 748 mmHg 56%
07:00 +25°C° 0 mm 2 m/s 748 mmHg 52%
08:00 +27°C° 0 mm 2 m/s 748 mmHg 45%
09:00 +30°C° 0 mm 2 m/s 748 mmHg 38%
10:00 +32°C° 0 mm 2 m/s 747 mmHg 32%
11:00 +34°C° 0 mm 2 m/s 747 mmHg 30%
12:00 +35°C° 0 mm 2 m/s 747 mmHg 28%
13:00 +37°C° 0 mm 2 m/s 746 mmHg 27%
14:00 +37°C° 0 mm 2 m/s 746 mmHg 26%
15:00 +37°C° 0 mm 2 m/s 745 mmHg 26%
16:00 +38°C° 0 mm 2 m/s 744 mmHg 26%
17:00 +35°C° 0 mm 1 m/s 744 mmHg 30%
18:00 +33°C° 0 mm 1 m/s 744 mmHg 35%
19:00 +29°C° 0 mm 0 m/s 744 mmHg 39%
20:00 +29°C° 0 mm 1 m/s 744 mmHg 43%
21:00 +28°C° 0 mm 1 m/s 744 mmHg 46%
22:00 +27°C° 0 mm 1 m/s 744 mmHg 49%
23:00 +26°C° 0 mm 1 m/s 744 mmHg 51%
Arată mai mult

Formular de consimțământ

Meteoprog și furnizorii noștri de servicii pot stoca și accesa date personale, precum cookies, identificatori de dispozitiv sau alte tehnologii similare pe dispozitivul dumneavoastră și procesa astfel de date pentru a personaliza conținutul și reclamele, dar și pentru a oferi caracteristici de social media și pentru a analiza traficul.

  • Stocarea și/sau accesarea informațiilor pe dispozitivul dumneavoastră

    Cookies, identificatori de dispozitiv sau alte informații pot fi stocate sau accesate pe dispozitiv în scopurile indicate mai sus.

  • Reclame și conținut personalizat, evaluarea reclamelor și a conținutului, informații despre audiențe și dezvoltarea produselor

    Reclamele și conținutul pot fi personalizate pe baza unui profil. Pot fi adăugate date suplimentare pentru a personaliza mai bine reclamele și conținutul. Performanța reclamelor și conținutului poate fi măsurată. Pot fi obținute informații despre utilizatorii care au văzut reclamele și conținutul. Aceste date pot fi utilizate pentru a dezvolta sau îmbunătăți experiența utilizatorilor, sistemele și software-ul.

Dând clic pe ‘Sunt de acord’, permiteți utilizarea cookie-urilor menționate, a identificatorilor de dispozitiv, balizelor web sau altor tehnologii similare. Setările pot fi modificate din browser-ul dispozitivului dumneavoastră.

În anumite scopuri, interesele legitime pot prima asupra consimțământului. Puteți citi mai multe informații în acest sens în Politica privind Confidențialitatea Datelor și Cookie.